Location: Charlotte
(35.2269°N, 80.8433°W)
Time: 21:45:26
(UTC-04:00)

ISS - Visible Passes

Search period start: 17 October 2017 00:00
Search period end: 27 October 2017 00:00
Orbit: 401 x 408 km, 51.6° (Epoch: 18 October)

Date Brightness Start Highest point End Pass type
(mag) Time Alt. Az. Time Alt. Az. Time Alt. Az.
17 Oct -1.0 20:05:10 10° W 20:07:24 17° SW 20:09:39 10° S visible
18 Oct -2.2 19:12:14 10° WNW 19:15:16 36° SW 19:18:18 10° SSE visible
20 Oct -0.6 19:05:12 10° W 19:06:52 13° SW 19:08:33 10° SSW visible
